User: anonymous   Login
Location: Fort Wayne
(41.1310°N, 85.1290°W)
Time: 19:09:56
(UTC-05:00)
Language:

OPAL - Orbit

View from above orbital plane
View from above orbital plane
View from above satellite
View from above satellite

Ground track
Ground track

The orbit data is extracted from the following two-line orbital elements,

1 26063U 00004C   16341.93239209  .00000023  00000-0  27707-4 0  9995
2 26063 100.2096 303.8822 0036967 129.7067 230.7382 14.36644618883777
Epoch (UTC): 06 December 2016 22:22:38
Eccentricity: 0.0036967
inclination: 100.2096°
perigee height: 743 km
apogee height: 796 km
right ascension of ascending node: 303.8822°
argument of perigee: 129.7067°
revolutions per day: 14.36644618
mean anomaly at epoch: 230.7382°
orbit number at epoch: 88377

The dashed part of the orbit path shows where the satellite is in the earth's shadow,  

DLR